Casper, WY

11:51 AM MDT on August 20, 2014 (GMT -0600)
North of Casper, WY | Change Station
CLOSE
Current Station
Personal Weather Station
Location: Bar Nunn, WY
Elevation: 5276 ft
Nearby Weather Stations

Elev 5276 ft 42.91 °N, 106.35 °W | Updated 33 seconds ago

Partly Cloudy
Partly Cloudy
79.3 °F
Feels Like 79 °F
N
6.2
Wind Variable Wind from NNE
Gusts 13.4 mph

Today
High -- | Low -- °F
--% Chance of Precip.
Yesterday
High -- | Low -- °F
Precip. -- in
6:16 AM 7:59 PM
Waning Crescent, 20% visible
Pressure 29.71 in
Visibility 10.0 miles
Clouds Few 7000 ft
Heat Index 79 °F
Dew Point 47 °F
Humidity 32%
Rainfall 0.00 in
Snow Depth 0 in
UV 7 out of 12
Pollen 9.50 out of 12
Air Quality Not available.
Flu Activity Not available.
METAR KCPR 201653Z 25013G22KT 10SM FEW070 26/06 A2992 RMK AO2 SLP060 T02560061

More Conditions Fewer Conditions

Pressure 29.71 in
Visibility 10.0 miles
Clouds Few 7000 ft
Heat Index 79 °F
Dew Point 47 °F
Humidity 32%
Rainfall 0.00 in
Snow Depth 0 in
UV 7 out of 12
Pollen 9.50 out of 12
Air Quality Not available.
Flu Activity Not available.
METAR KCPR 201653Z 25013G22KT 10SM FEW070 26/06 A2992 RMK AO2 SLP060 T02560061

More Conditions Fewer Conditions

10-Day Weather Forecast

Almanac

Astronomy

Aug. 20, 2014 Rise Set
Actual Time 6:16 AM MDT 7:59 PM MDT
Civil Twilight 5:46 AM MDT 8:29 PM MDT
Nautical Twilight 5:10 AM MDT 9:05 PM MDT
Astronomical Twilight 4:30 AM MDT 9:44 PM MDT
Moon 1:56 AM MDT 4:49 PM MDT
Length of Visible Light 14h 42m
Length of Day
13h 42m
Tomorrow will be 2m 40s shorter.
Waning Crescent, 20% of the Moon is Illuminated
Today
Waning Crescent
Aug 25
New
Sep 2
First Quarter
Sep 8
Full
Sep 15
Last Quarter

Today's Extremes

State Highs State Lows

Community

WunderPhotos

Upload Photos

1,745,699 photos uploaded!

WunderBlogs® & News

By Dr. Jeff Masters
Director of Meteorology, Weather Underground
By Kari Strenfel
Meteorologist, Weather Underground
By Christopher C. Burt
Weather Historian, Weather Underground
August 20, 2014
August 20, 2014
August 20, 2014

Nearby

Snow Depth

Station Depth Elevation
Casper Mountain 0 in 7850 ft
Reno Hill 0 in 8500 ft
Sand Lake 0 in 10050 ft
Brooklyn Lake 0 in 10220 ft
South Brush Creek 0 in 8440 ft

Earthquake Activity

City Distance Mag. Time & Date
No recent earthquake activity has been reported nearby.
Minimum magnitude displayed is 2.5.

Coastal Water Temperatures

Place Temperature
No Stations Reporting

Nearby Weather Stations